This is the latest recevied weather packets stored in our database for station/object DB0MOD. If no packets are shown the sender has not sent any weather packets the latest 1 day(s).
| Time | Temp. | Humidity | Pressure | Rain* | Wind** | Luminosity | Snow |
|---|---|---|---|---|---|---|---|
| 1778033342 | 5.56° C | 10% | 1008.3 hPa | 0 mm | - | - | - |
| 1778033042 | 5.56° C | 10% | 1008.2 hPa | 0 mm | - | - | - |
| 1778032442 | 5.56° C | 10% | 1008 hPa | 0 mm | - | - | - |
| 1778032244 | 5.56° C | 10% | 1008 hPa | 0 mm | - | - | - |
| 1778032143 | 5.56° C | 10% | 1008 hPa | 0 mm | - | - | - |
| 1778031842 | 5.56° C | 10% | 1008 hPa | 0 mm | - | - | - |
| 1778031542 | 5.56° C | 10% | 1008 hPa | 0 mm | - | - | - |
| 1778031243 | 5.56° C | 10% | 1008.1 hPa | 0 mm | - | - | - |
| 1778030642 | 5.56° C | 10% | 1008.2 hPa | 0 mm | - | - | - |
| 1778030342 | 5.56° C | 10% | 1008.2 hPa | 0 mm | - | - | - |
| 1778030042 | 5.56° C | 10% | 1008.3 hPa | 0 mm | - | - | - |
| 1778029742 | 5.56° C | 10% | 1008.4 hPa | 0 mm | - | - | - |
| 1778029442 | 5.56° C | 10% | 1008.4 hPa | 0 mm | - | - | - |
| 1778028842 | 5.56° C | 10% | 1008.6 hPa | 0 mm | - | - | - |
| 1778015343 | 6.11° C | 10% | 1009.3 hPa | 0 mm | - | - | - |
| 1778014744 | 6.67° C | 10% | 1009.2 hPa | 0 mm | - | - | - |
| 1778013243 | 7.22° C | 10% | 1008.9 hPa | 0 mm | - | - | - |
| 1778012643 | 7.78° C | 10% | 1009.3 hPa | 0 mm | - | - | - |
| 1778012343 | 7.78° C | 10% | 1009.1 hPa | 0 mm | - | - | - |
| 1778012043 | 7.78° C | 10% | 1009.1 hPa | 0 mm | - | - | - |
| 1778011443 | 8.33° C | 10% | 1009 hPa | 0 mm | - | - | - |
| 1778010843 | 8.89° C | 10% | 1009.1 hPa | 0 mm | - | - | - |
| 1778009643 | 9.44° C | 10% | 1009.2 hPa | 0 mm | - | - | - |
| 1778009343 | 9.44° C | 10% | 1009 hPa | 0 mm | - | - | - |
| 1778007843 | 10° C | 10% | 1008.4 hPa | 0 mm | - | - | - |
* Rain latest hour (hover to see other rain measurements)
** Current wind speed in m/s (hover to see current wind gust speed)